Regional Weather Roundup
Issued by NWS Goodland, KS

Home | Current Version | Previous Version | Text Only | Print | Product List | Glossary On
Versions: 1 2 3 4 5 6 7 8 9 10 11 12 13 14 15 16 17 18 19 20 21 22 23 24 25 26 27 28 29 30 31 32 33 34 35 36 37 38 39 40 41 42 43 44 45 46 47 48 49 50
095
ASUS43 KGLD 252108
RWRGLD

GOODLAND FORECAST AREA HOURLY WEATHER ROUNDUP
NATIONAL WEATHER SERVICE GOODLAND KS
300 PM MDT THU AUG 25 2016

...OFFICIAL OBSERVATIONS...

CITY           SKY/WX    TMP DP  RH WIND       PRES   REMARKS
GOODLAND KS    SUNNY     76  46  34 SE13G21   30.19F
HILL CITY KS   PTSUNNY   73  53  49 NE6       30.17F
IMPERIAL NEB   SUNNY     76  43  30 CALM      30.18F
MCCOOK NEB     SUNNY     78  50  37 E9        30.17F
AKRON CO       SUNNY     75  41  29 SE12G22   30.21F
BURLINGTON CO  MOSUNNY   76  47  35 E15G24    30.20F
LIMON CO       MOSUNNY   75  40  28 E12       30.21F
$$

...UNOFFICIAL OBSERVATIONS...

CITY           SKY/WX    TMP DP  RH WIND       PRES   REMARKS
COLBY KS       SUNNY     77  50  38 E8        30.20S
LENORA KS        N/A     73  32  22 MISG        N/A
NORTON KS      SUNNY     75  45  33 NE7       30.16S
SHARON SPRINGS   N/A     75  58  54 E5G12       N/A
TRENTON NEB      N/A     80  32  17 MISG        N/A
KIT CARSON CO    N/A     75  49  39 MISG        N/A
YUMA CO          N/A     75  45  34 SE14        N/A
$$




USA.gov is the U.S. government's official web portal to all federal, state and local government web resources and services.